This is the latest recevied weather packets stored in our database for station/object KD2ZLA. If no packets are shown the sender has not sent any weather packets the latest 10 day(s).
| Time | Temp. | Humidity | Pressure | Rain* | Wind** | Luminosity | Snow |
|---|---|---|---|---|---|---|---|
| 1777720177 | 4.44° C | 90% | 1012.4 hPa | 0 mm | - | 28 W/m² | - |
| 1777719875 | 4.44° C | 90% | 1012.2 hPa | 0 mm | - | 39 W/m² | - |
| 1777719571 | 4.44° C | 91% | 1012.3 hPa | 0 mm | - | 34 W/m² | - |
| 1777719269 | 4.44° C | 91% | 1012.2 hPa | 0 mm | - | 25 W/m² | - |
| 1777718967 | 4.44° C | 91% | 1012.1 hPa | 0 mm | - | 24 W/m² | - |
| 1777718664 | 3.89° C | 90% | 1012.3 hPa | 0 mm | - | 22 W/m² | - |
| 1777718361 | 3.89° C | 90% | 1012.3 hPa | 0 mm | - | 22 W/m² | - |
| 1777718059 | 3.89° C | 91% | 1012.1 hPa | 0 mm | - | 22 W/m² | - |
| 1777717755 | 3.89° C | 91% | 1012.2 hPa | 0 mm | - | 16 W/m² | - |
| 1777717452 | 3.89° C | 91% | 1011.9 hPa | 0 mm | - | 13 W/m² | - |
| 1777717149 | 3.89° C | 92% | 1012 hPa | 0 mm | - | 10 W/m² | - |
| 1777716848 | 3.89° C | 92% | 1012.1 hPa | 0 mm | - | 8 W/m² | - |
| 1777716546 | 3.33° C | 93% | 1012.2 hPa | 0 mm | - | 4 W/m² | - |
| 1777716245 | 3.33° C | 93% | 1012.1 hPa | 0 mm | - | 4 W/m² | - |
| 1777715941 | 3.33° C | 93% | 1011.9 hPa | 0 mm | - | 2 W/m² | - |
| 1777715639 | 3.33° C | 93% | 1011.9 hPa | 0 mm | - | 2 W/m² | - |
| 1777715337 | 3.33° C | 93% | 1011.9 hPa | 0 mm | - | 1 W/m² | - |
| 1777715034 | 2.78° C | 94% | 1011.8 hPa | 0 mm | - | 1 W/m² | - |
| 1777714732 | 2.78° C | 94% | 1012 hPa | 0 mm | - | 0 W/m² | - |
| 1777714430 | 2.78° C | 94% | 1011.7 hPa | 0 mm | - | 0 W/m² | - |
| 1777714128 | 2.78° C | 94% | 1011.7 hPa | 0 mm | - | 0 W/m² | - |
| 1777713825 | 2.22° C | 93% | 1011.6 hPa | 0 mm | - | 0 W/m² | - |
| 1777713523 | 2.22° C | 93% | 1011.5 hPa | 0 mm | - | 0 W/m² | - |
| 1777713218 | 2.22° C | 93% | 1011.5 hPa | 0 mm | - | 0 W/m² | - |
| 1777712916 | 2.78° C | 92% | 1011.4 hPa | 0 mm | - | 0 W/m² | - |
* Rain latest hour (hover to see other rain measurements)
** Current wind speed in m/s (hover to see current wind gust speed)